This is the latest recevied weather packets stored in our database for station/object R2AKT-13. If no packets are shown the sender has not sent any weather packets the latest 10 day(s).
| Time | Temp. | Humidity | Pressure | Rain* | Wind** | Luminosity | Snow |
|---|---|---|---|---|---|---|---|
| 1777843869 | 15° C | 49% | 985.8 hPa | - | 0.89 m/s, 205° | - | - |
| 1777843309 | 15.56° C | 49% | 985.8 hPa | - | 1.34 m/s, 169° | - | - |
| 1777842784 | 15.56° C | 48% | 985.9 hPa | - | 0.89 m/s, 192° | - | - |
| 1777842299 | 15.56° C | 48% | 985.9 hPa | - | 1.34 m/s, 204° | - | - |
| 1777841789 | 15.56° C | 48% | 986 hPa | - | 0.89 m/s, 201° | - | - |
| 1777841229 | 15.56° C | 48% | 986.1 hPa | - | 1.34 m/s, 195° | - | - |
| 1777840654 | 15.56° C | 48% | 986.1 hPa | - | 1.34 m/s, 184° | - | - |
| 1777840122 | 16.11° C | 47% | 985.9 hPa | - | 0.89 m/s, 217° | - | - |
| 1777839581 | 16.11° C | 47% | 986.1 hPa | - | 0.89 m/s, 192° | - | - |
| 1777839024 | 16.11° C | 47% | 986.1 hPa | - | 0.89 m/s, 210° | - | - |
| 1777838479 | 16.11° C | 47% | 986.1 hPa | - | 0.89 m/s, 231° | - | - |
| 1777837879 | 16.11° C | 46% | 986.1 hPa | - | 1.79 m/s, 187° | - | - |
| 1777837284 | 16.67° C | 46% | 986.2 hPa | - | 0.89 m/s, 188° | - | - |
| 1777836694 | 16.67° C | 46% | 986.2 hPa | - | 0.89 m/s, 192° | - | - |
| 1777836124 | 16.67° C | 46% | 986.2 hPa | - | 1.34 m/s, 199° | - | - |
| 1777835599 | 16.67° C | 45% | 986.1 hPa | - | 1.79 m/s, 206° | - | - |
| 1777835024 | 17.22° C | 45% | 986.2 hPa | - | 1.34 m/s, 176° | - | - |
| 1777834455 | 17.22° C | 45% | 986.2 hPa | - | 1.79 m/s, 203° | - | - |
| 1777833944 | 17.22° C | 44% | 986.2 hPa | - | 1.79 m/s, 202° | - | - |
| 1777833424 | 17.78° C | 44% | 986.3 hPa | - | 1.34 m/s, 203° | - | - |
| 1777832889 | 17.78° C | 44% | 986.2 hPa | - | 1.34 m/s, 194° | - | - |
| 1777832364 | 17.78° C | 43% | 986.2 hPa | - | 1.34 m/s, 185° | - | - |
| 1777831784 | 17.78° C | 43% | 986.2 hPa | - | 1.79 m/s, 187° | - | - |
| 1777831299 | 17.78° C | 43% | 986.2 hPa | - | 1.34 m/s, 196° | - | - |
| 1777830734 | 18.33° C | 42% | 986.2 hPa | - | 2.24 m/s, 191° | - | - |
* Rain since midnight (hover to see other rain measurements)
** Current wind speed in m/s (hover to see current wind gust speed)